Other Public Products
Issued by NWS Grand Forks, ND

Home | Current Version | Previous Version | Graphics & Text | Print | Product List | Glossary On
Versions: 1 2 3 4 5 6 7 8 9 10 11 12 13 14 15 16 17 18 19 20 21 22 23 24 25 26 27 28 29 30 31 32 33 34 35 36 37 38 39 40 41 42 43 44 45 46 47 48 49 50
000
FPUS83 KFGF 301310
OPUFGF
PRAIRIE TO PINES WEATHER ROUNDUP
NATIONAL WEATHER SERVICE EASTERN NORTH DAKOTA/GRAND FORKS ND
800 AM CDT SAT JUL 30 2016

 **SATELLITE DATA USED TO AUGMENT SKY COVER AT AUTOMATED STATIONS**
 *****  WEATHER ACROSS EASTERN NORTH DAKOTA  *****

CITY           SKY/WX    TMP DP  RH WIND       PRES   REMARKS
GRAND FORKS    PTSUNNY   67  62  84 SE9       29.96R
GRAND FORKS AF NOT AVBL
GRAND CITY NWS NOT AVBL
BUXTON           N/A     66  66  97 SE8         N/A
DEVILS LAKE    SUNNY     67  61  81 SW12      29.94R
FARGO          SUNNY     68  60  75 S8        29.98R
WAHPETON ARPT  CLOUDY    63  59  88 SE5       30.00S
$$

 *****  WEATHER ACROSS CENTRAL AND WESTERN NORTH DAKOTA  *****

CITY           SKY/WX    TMP DP  RH WIND       PRES   REMARKS
JAMESTOWN      CLOUDY    64  60  87 S8        29.95S
BISMARCK       CLOUDY    64  63  96 E12       29.94R
MINOT          SUNNY     68  61  78 S9        29.90R
MINOT AFB      NOT AVBL
GARRISON         N/A     65  61  87 SE3       29.91S
WILLISTON      SUNNY     61  55  81 CALM      29.91R
DICKINSON      PTSUNNY   55  55 100 CALM      29.91S FOG
HETTINGER      SUNNY     60  56  86 CALM      29.94S
$$

 *****  OTHER OBSERVATIONS NORTHEAST NORTH DAKOTA  *****

CITY           SKY/WX    TMP DP  RH WIND       PRES   REMARKS
WALHALLA       NOT AVBL
LANGDON        FAIR      66  64  94 S8        29.95R
CAVALIER       LGT RAIN  64  63  94 CALM      29.93S
GRAFTON        FAIR      64  64 100 SE8       29.96S
CANDO          NOT AVBL
FORT TOTTEN      N/A     63  61  93 S7        29.95S
ROLLA          PTSUNNY   59  59 100 CALM      29.94S FOG
RUGBY          NOT AVBL
 ***** THE ABOVE OBSERVATIONS ARE NON NWS ARE NOT QUALITY
        CONTROLLED AND MAY MIS-REPORT RAIN FOR SNOW...
$$

 *****  OTHER OBSERVATIONS SOUTHEAST NORTH DAKOTA *****

CITY           SKY/WX    TMP DP  RH WIND       PRES   REMARKS
COOPERSTOWN    NOT AVBL
VALLEY CITY    FAIR      64  64 100 S9        29.99S
OAKES            N/A    N/A N/A N/A MISG        N/A
GWINNER        FAIR      68  61  77 S8        29.99S
SHEYENNE NWR     N/A     68  62  80 S5        29.95S
BUFFALO          N/A     66  58  77 S6          N/A
WYNDMERE       NOT AVBL
 ***** THE ABOVE OBSERVATIONS ARE NON NWS ARE NOT QUALITY
       CONTROLLED AND MAY MIS-REPORT RAIN FOR SNOW...
$$

  *****  WEATHER ACROSS NORTHERN MINNESOTA  *****

CITY           SKY/WX    TMP DP  RH WIND       PRES   REMARKS
FLAG ISLAND    SUNNY     70  63  78 SW3       29.98S
WARROAD        NOT AVBL
ROSEAU         SUNNY     63  57  82 S6        29.99R
HALLOCK        CLOUDY    66  63  88 S8        29.96R
THF RVR FALLS  CLOUDY    64  62  93 S6        30.00S
HALSTAD          N/A     65  63  90 SE8         N/A
FOSSTON        LGT RAIN  63  61  94 S6        30.03S
BAUDETTE       SUNNY     64  60  87 S5        30.01S
WASKISH        SUNNY     64  59  82 S5        30.02S HAZE
CROOKSTON      LGT RAIN  64  63  94 SE6       29.99S
$$
  *****  WEATHER ACROSS CENTRAL AND WEST MINNESOTA  *****

CITY           SKY/WX    TMP DP  RH WIND       PRES   REMARKS
BEMIDJI        PTSUNNY   63  58  83 SE3       30.03F
PARK RAPIDS    CLOUDY    63  56  78 SE10      30.04S
WADENA         MOSUNNY   63  57  82 CALM      30.04
DETROIT LAKES  CLOUDY    66  61  82 SE5       30.03S
MOORHEAD       SUNNY     66  61  82 SE8       29.99S
FERGUS FALLS   CLOUDY    66  59  77 SE7       30.03S
ELBOW LAKE     CLOUDY    66  60  79 SE9       30.03S
MORRIS MN      SUNNY     63  61  94 SE6       30.02S
STAPLES        SUNNY     61  55  82 SE5       30.05R
WHEATON        CLOUDY    64  63  94 SE5       30.03R
$$
  *****  WEATHER ELSEWHERE ACROSS MINNESOTA  *****

CITY           SKY/WX    TMP DP  RH WIND       PRES   REMARKS
DULUTH         CLOUDY    61  57  87 E6        30.08R
INTRNTL FALLS  MOSUNNY   61  54  77 VRB3      30.05R
ELY            CLOUDY    57  54  88 CALM      30.08S
CLOQUET        SUNNY     59  55  88 CALM      30.07S
BRAINERD       SUNNY     61  57  87 CALM      30.06R
HIBBING        MOSUNNY   55  52  89 CALM      30.07S
ALEXANDRIA     SUNNY     66  57  72 MISG      30.05S
SAINT CLOUD    SUNNY     62  59  90 CALM      30.05R
MINNEAPOLIS    CLOUDY    69  61  75 SE5       30.04S
$$

  *****  WEATHER ACROSS SOUTH DAKOTA  *****

CITY           SKY/WX    TMP DP  RH WIND       PRES   REMARKS
SIOUX FALLS    SUNNY     63  58  83 CALM      30.04R
BROOKINGS      SUNNY     62  56  80 S5        30.04R
WATERTOWN      SUNNY     63  56  78 S5        30.04R
HURON          SUNNY     63  57  81 S8        30.00R
SISSETON         N/A     66  58  75 S6        29.99S
ABERDEEN       SUNNY     63  56  78 S12       29.98S
MITCHELL       SUNNY     65  60  84 S8        30.01F
PIERRE         CLOUDY    65  59  81 SE9       29.94R
MOBRIDGE       SUNNY     68  57  68 S13       29.91S
RAPID CITY     SUNNY     60  57  89 CALM      29.95R
$$

  *****  SOME WEATHER IN NEARBY STATES *****

CITY           SKY/WX    TMP DP  RH WIND       PRES   REMARKS
GLASGOW MT     SUNNY     61  53  75 E10       29.87R
GREAT FALLS MT PTCLDY    61  49  64 SW3       29.84S
CHEYENNE WY    FOG       61  60  97 S5        30.12R VSB 1
SCOTTSBLUFF NE SUNNY     62  59  90 NE3       30.03F
OMAHA NE       MOSUNNY   65  61  87 CALM      30.05R
DES MOINES IA  PTSUNNY   69  65  86 NE5       30.00S
DAVENPORT IA   CLOUDY    69  65  86 N5        30.00R
CHICAGO IL     CLOUDY    71  65  81 NE9       29.97R
EAU CLAIRE WI  SUNNY     65  60  84 NE3       30.05S
LA CROSSE WI   SUNNY     68  62  81 CALM      30.03R
$$

  *****  SOME NATIONAL WEATHER *****

CITY           SKY/WX    TMP DP  RH WIND       PRES   REMARKS
LA GUARDIA NY  CLOUDY    77  70  79 NE9       30.01R
RALEIGH NC     CLOUDY    80  73  79 S6        29.99R
ATLANTA GA     MOSUNNY   78  74  87 W8        30.05R
NEW ORLEANS LA MOSUNNY   84  77  79 CALM      30.04R HX  94
OKLAHOMA CITY  PTSUNNY   75  72  90 S6        29.98S
ALBUQUERQUE NM CLOUDY    66  55  67 N8        30.18R
SALT LAKE CITY PTCLDY    78  42  27 SE5       29.94R
LOS ANGELES CA PTCLDY    70  63  78 NW3       29.83R
BOISE ID       CLEAR     70  38  31 CALM      29.82R HAZE
SEATTLE WA     MOCLDY    57  55  93 SW7       29.95R
$$

*** WEATHER ACROSS MANITOBA...SASKATCHEWAN AND ONTARIO ***
                ***ONTARIO***

CITY           SKY/WX    TMP DP  RH WIND       PRES   REMARKS
GERALDTON      MOSUNNY   64  54  68 S5        30.10R
THUNDER BAY    PTSUNNY   59  54  82 VRB2      30.10S
SIOUX LOOKOUT  PTSUNNY   66  59  77 S5        30.04R
TORONTO        LGT RAIN  66  55  68 NE7       30.06R
BIG TROUT LK   CLOUDY    66  61  82 SW9       29.95R
PICKLE LAKE    MOSUNNY   68  54  60 S7        30.02S
DRYDEN         CLOUDY    66  57  72 S9        30.03S
KENORA         MOSUNNY   66  63  88 S7        30.01R
$$
                *** MANITOBA***

CITY           SKY/WX    TMP DP  RH WIND       PRES   REMARKS
BRANDON        MOSUNNY   61  59  94 SE5       29.91S
DAUPHIN        MOSUNNY   70  61  73 SW8       29.85S
ISLAND LAKE    PTSUNNY   66  61  82 S5        29.89S
PILOT MOUND      N/A     64  61  88 S8          N/A
THE PAS        MOSUNNY   64  61  88 S5        29.80S
THOMPSON       LGT RAIN  63  61  94 VRB2      29.80F
WINNIPEG       MOSUNNY   66  57  72 S9        29.93S
LYNN LAKE      CLOUDY    63  59  88 MISG      29.81S
CHURCHILL      CLOUDY    54  46  76 SE8       29.97S
GILLAM         LGT RAIN  54  52  94 E6        29.86F
$$
                ***SASKATCHEWAN***

CITY           SKY/WX    TMP DP  RH WIND       PRES   REMARKS
ESTEVAN        MOSUNNY   61  59  94 CALM      29.90S
KINDERSLEY     PTSUNNY   63  57  82 SE10      29.79F
LLOYDMINSTER   PTSUNNY   61  57  88 NW3       29.80S
PRINCE ALBERT  PTSUNNY   61  61 100 S2        29.79S
REGINA         MOSUNNY   57  55  94 SE5       29.87S
YORKTON        SUNNY     63  59  88 VRB2      29.86S   C1F1C2F2C3F3C4F4C5F5C6F6C7F7C8F8C9F9CaFaCbFbCcFcCdFdCe!


USA.gov is the U.S. government's official web portal to all federal, state and local government web resources and services.